Location: *
(24.1434°N, 56.8729°E)
Time: 22:17:00
(UTC+00:00)

Cosmos 1190 Rocket - Pass Details

Date: 09 April 2020
Orbit: 757 x 779 km, 74.1° (Epoch: 24 May)

Event Time Altitude Azimuth Distance (km) Brightness Sun altitude
Rises 15:10:07 0° 186° (S) 3,246 7.2 -9.4°
Reaches altitude 10° 15:12:30 10° 184° (S) 2,321 6.4 -9.9°
Maximum altitude 15:17:44 65° 103° (ESE) 852 4.0 -11.1°
Drops below altitude 10° 15:22:57 10° 22° (NNE) 2,323 6.4 -12.2°
Sets 15:25:21 0° 19° (NNE) 3,250 7.2 -12.8°
